Weather in Vyshegor

Russia / Smolensk Oblast     55°07′13″N   33°03′07″E
temp.,
°C
wind,
m/s
gust,
m/s
humid.,
%
clouds,
%
prec.,
mm/h
press.,
hPa
HPBL,
m
14 may, fri
fri1400:00+7se37965 0.0 1014154
03:00+6se399640 0.0 1014197
06:00+8se41190100 0.0 1013329
09:00+10se41286100 0.0 1013446
12:00+15se4868100 0.0 1013837
15:00+20se575243 0.0 10101634
18:00+18ese48766 0.4 1008823
21:00+13ese41196100 2.8 1008456
15 may, sat
sat1500:00+11e259932 1.1 1007126
03:00+10se239926 1.1 100674
06:00+11s299869 0.1 1006240
09:00+16s478336 0.1 1007671
12:00+17ssw577261 1.4 10071338
15:00+18ssw586635 3.1 10061495
18:00+16ssw48848 2.4 1007810
21:00+12ssw3995100 2.8 1008295
16 may, sun
sun1600:00+12ssw41296100 0.0 1008424
03:00+11s3998100 0.0 1009268
06:00+11s3798100 0.1 1010296
09:00+13sw3594100 1.0 1011436
12:00+17sw3473100 0.2 10121066
15:00+21ssw345481 0.4 10121806
18:00+18ssw35785 0.8 1012583
21:00+13sse229325 0.9 101322
17 may, mon
mon1700:00+12se229496 0.0 101336
03:00+11se3695100 0.0 1013110
06:00+12se389387 0.0 1012197
09:00+18se4870100 0.0 1011437
12:00+19e4771100 0.0 1010572
15:00+23ese5962100 0.0 10061569
18:00+21se51276100 2.5 1004415
21:00+16s2294100 4.8 100520
18 may, tue
tue1800:00+14sw1199100 2.3 100413
03:00+14sw2399100 3.8 100498
06:00+14w2399100 1.2 1004168
09:00+15sw2294100 1.3 1005375
12:00+16nw228893 0.3 1005505
15:00+15wsw5796100 3.1 1005529
18:00+16w3585100 4.9 1004577
21:00+14sw1194100 5.1 100515